Regional Weather Roundup
Issued by NWS

Home | Current Version | Previous Version | Graphics & Text | Print | Product List | Glossary On
Versions: 1 2 3 4 5 6 7 8 9 10 11 12 13 14 15 16 17 18 19 20 21 22 23 24 25 26 27
000
ASUS45 KSLC 272210
RWRUT

UTAH REGIONAL WEATHER ROUNDUP
NATIONAL WEATHER SERVICE SALT LAKE CITY UT
400 PM MDT TUE JUN 27 2017

UTZ001>011-023>025-272300-

NORTHERN UTAH

CITY           SKY/WX    TMP DP  RH WIND       PRES   REMARKS
BRIGHAM CITY     N/A     88  33  14 NW10      29.91S
DUGWAY         MOSUNNY   91  22   8 NW10      29.92S
HILL AFB       SUNNY     85  37  17 W10       29.97S
LOGAN          PTSUNNY   85  41  21 N8        29.91F
OGDEN            N/A     87  34  15 W13       29.93F
SALT LAKE CITY   N/A     90  31  12 N12       29.92F
TOOELE VALLEY    N/A     88  43  20 NE16      29.93F
WENDOVER         N/A     91  23   8 NW9       29.90F
HEBER CITY       N/A     88  34  14 SW14G21   29.97S
WEST JORDAN      N/A     86  49  28 NW15G24   29.96F

$$

UTZ011>015-024>027-272300-

CENTRAL/NORTHEAST UTAH

CITY           SKY/WX    TMP DP  RH WIND       PRES   REMARKS
PROVO AIRPORT  MOSUNNY   90  43  19 NW13      29.93S
MOAB/CANYONLAN   N/A    100  10   4 SW20G25   29.82F HX  92
DELTA            N/A     90  25   9 NW12      29.93F
PRICE            N/A     90  28  11 W16G29    29.97F
VERNAL         SUNNY     93  34  12 W23G32    29.88F

$$

UTZ013>016-019>022-027-272300-

SOUTHERN UTAH

CITY           SKY/WX    TMP DP  RH WIND       PRES   REMARKS
BRYCE CANYON     N/A     84  19   9 W8G21     30.14F
CEDAR CITY       N/A     91  18   7 S8G21     29.99F
MILFORD          N/A     96  21   6 S9        29.90F
ST GEORGE        N/A    100  23   6 NW8G18    29.80F HX  93
HANKSVILLE       N/A    100  19   5 SW7G20    29.83F HX  93
BLANDING         N/A     92  20   7 SW12G24   30.06F

$$

REGIONAL REPORTS     COLORADO/ARIZONA

CITY           SKY/WX    TMP DP  RH WIND       PRES   REMARKS
CRAIG, CO      CLOUDY    91  15   6 W26G37    29.94F
GRAND JUNCTION SUNNY     96  14   5 NW12      29.86F
RIFLE, CO      SUNNY     94   6   4 W23G36    29.91F
MONTROSE, CO   SUNNY     91  22   8 W16G31    29.98F
CORTEZ, CO     SUNNY     93  16   6 SW13G28   30.01F
COLORADO CITY    N/A     97  23   7 SW5G17    29.99F HX  90
PAGE, AZ         N/A     99   9   3 SW8G20    29.86F HX  91
GRAND CANYON     N/A     88   6   4 SW23G36   30.13F
KINGMAN, AZ      N/A     99  23   6 SW15G26   29.91F HX  92
FLAGSTAFF, AZ    N/A     84   1   4 SW18G35   30.17F

$$

REGIONAL REPORTS    NEVADA/IDAHO/WYOMING

CITY           SKY/WX    TMP DP  RH WIND       PRES   REMARKS
LAS VEGAS, NV    N/A    106   9   3 S12G21    29.75F HX  97
ELY, NY          N/A     87  32  14 MISG      30.05F
ELKO, NV         N/A     84  22  10 VRB6G18   30.00F
POCATELLO, ID  MOSUNNY   84  40  21 SW23      29.93F
BURLEY, ID       N/A     82  40  22 W20G26    29.93F
FORT BRIDGER,    N/A     80  25  13 W25G38    30.09F
EVANSTON, WY   SUNNY     77  33  20 W21G30    30.10S
ROCK SPRINGS,  CLOUDY    78  31  17 W29G44    30.00S
KEMMERER, WY     N/A     73  34  23 W25G36    30.08S

$$




USA.gov is the U.S. government's official web portal to all federal, state and local government web resources and services.